2022-057M (52743 NORAD) Tracking and Keplerian Element Data
This shows tracking and keplerian element data for the satellite.
Feedback or suggestion? Click here.
Element | Value |
Catalog | 52743 |
Name | 2022-057M |
Epoch Orbit | 712 |
Epoch Day | 192.86756566 |
Epoch Year | 2022 |
RAAN | 307.1374 |
Inclination | 97.5154 |
Eccentricity | 0.0010269 |
Argument of Perigee | 87.7177 |
Mean Anonmoly | 272.5229 |
Mean Motion | 15.12252731 |
Decay Rate | 5.518E-05 |
L1 | 1 52743U 22057M 22192.86756566 .00005518 00000+0 32246-3 0 9990 |
L2 | 2 52743 97.5154 307.1374 0010269 87.7177 272.5229 15.12252731 7122 |
Live tracking and technical data element details for 2022-057M (NORAD 52743). 2022-057M can be tracked NOW for your location showing map with azimuth and elevation plus other details from your city location.
Track the satellite on the map from your city or location and see movement details for azimuth, elevation, latitude, longitude, range, height, and movement on the map or in text.
IsCatalogInMostPopularTable: catalog: 52743, numindb: 4
Update: records affected: 1
GetName: 52743 2022-057M
Hit Count: updated at: Sun, 14 Aug 2022 01:35:23 GMT